Flag for Canada Weather past 2 weeks in Haldimand, Ontario, Canada

Now
21 °F

Passing clouds.


Feels Like: 16 °F
Forecast: 4 / 22 °F
Wind: 3 mph from Southeast

Location: Hamilton Airport

Current Time: Jan 28, 2015 at 2:08:07 PM

Latest Report: Jan 28, 2015 at 1:00 PM


Visibility: 15 mi

Pressure: 30.34 "Hg

Humidity: 42%

Dew point: 1 °F

Location of HaldimandLocation

Historic Weather in Haldimand — Graph

°F

Haldimand temperature yesterday

Maximum temperature yesterday: 18 °F (at 3:00 PM)
Minimum temperature yesterday: 9 °F (at 9:00 PM)
Average temperature yesterday: 12 °F

Past Weeks' High & Low Weather Summary

 TemperatureHumidityPressure
High41 °F (Jan 18, 3:00 AM)100% (Jan 24, 7:00 PM)30.75 "Hg (Jan 24, 7:00 PM)
Low-4 °F (Jan 14, 8:00 AM)41% (Jan 16, 3:00 PM)29.50 "Hg (Jan 24, 4:00 PM)
Average19 °F74%30.05 "Hg
* Reported Jan 13 1:00 PM — Jan 28 1:00 PM, Haldimand, Weather by CustomWeather, © 2014

Note: Actual official high and low records may vary slightly from our data, if they occured in-between our weather recording intervals... More about our weather records

Advertising

Haldimand weather history for previous 24 hours

 ConditionsComfort  
Time TempWeatherWind HumidityBarometerVisibility
1:00 PM
Jan 28
21 °FPassing clouds.3 mph42%30.34 "Hg15 mi
12:00 PM18 °FPassing clouds.7 mph53%30.37 "Hg15 mi
11:00 AM16 °FPassing clouds.5 mph57%30.37 "Hg15 mi
10:00 AM10 °FPassing clouds.9 mph72%30.35 "Hg15 mi
9:00 AM5 °FSunny.8 mph85%30.34 "Hg15 mi
8:00 AM0 °FSunny.8 mph84%30.32 "Hg15 mi
7:00 AM1 °FClear.7 mph78%30.29 "Hg15 mi
6:00 AM1 °FClear.6 mph78%30.27 "Hg15 mi
5:00 AM1 °FClear.7 mph85%30.25 "Hg15 mi
4:00 AM3 °FClear.10 mph85%30.23 "Hg15 mi
3:00 AM3 °FClear.9 mph78%30.22 "Hg15 mi
2:00 AM3 °FClear.5 mph72%30.21 "Hg15 mi
1:00 AM3 °FClear.6 mph66%30.20 "Hg15 mi
12:00 AM3 °FClear.3 mph60%30.19 "Hg15 mi
11:00 PM
Jan 27
10 °FClear.3 mph47%30.17 "Hg15 mi
10:00 PM9 °FClear.7 mph51%30.17 "Hg15 mi
9:00 PM9 °FClear.7 mph47%30.16 "Hg15 mi
8:00 PM10 °FPassing clouds.6 mph47%30.17 "Hg15 mi
7:00 PM14 °FPassing clouds.10 mph48%30.16 "Hg15 mi
6:00 PM16 °FPassing clouds.7 mph45%30.15 "Hg15 mi
5:00 PM16 °FBroken clouds.7 mph53%30.13 "Hg15 mi
4:00 PM16 °FPartly sunny.6 mph57%30.11 "Hg15 mi
3:00 PM18 °FPartly sunny.7 mph58%30.09 "Hg15 mi
2:00 PM16 °FBroken clouds.5 mph67%30.08 "Hg15 mi
Weather by CustomWeather, © 2014

See weather overviewHow to use our weather pages